| time (UTC) | temp F | wind direction | speed MPH | gust MPH | rain 1hr in | rain 24hr in | rain mn in | humidity % | barometer mb |
| 20260509212804 | 89 | 57 | 2.0 | 6.0 | 0.00 | 0.03 | 0.03 | 58 | 1010.4 |
| 20260509212306 | 90 | 111 | 2.0 | 6.0 | 0.00 | 0.03 | 0.03 | 59 | 1010.4 |
| 20260509211805 | 90 | 158 | 2.0 | 6.0 | 0.00 | 0.03 | 0.03 | 62 | 1010.4 |
| 20260509211305 | 89 | 200 | 2.0 | 5.0 | 0.00 | 0.03 | 0.03 | 59 | 1010.5 |
| 20260509210805 | 89 | 81 | 2.0 | 5.0 | 0.00 | 0.03 | 0.03 | 61 | 1010.6 |
| 20260509210304 | 88 | 339 | 2.0 | 5.0 | 0.00 | 0.03 | 0.03 | 60 | 1010.6 |
| 20260509210025 | 89 | 19 | 2.0 | 7.0 | 0.00 | 0.03 | 0.03 | 61 | 1010.6 |
| 20260509205529 | 89 | 336 | 3.0 | 7.0 | 0.00 | 0.03 | 0.03 | 61 | 1010.7 |
| 20260509204756 | 89 | 334 | 3.0 | 7.0 | 0.00 | 0.03 | 0.03 | 62 | 1010.8 |
| 20260509204512 | 88 | 340 | 2.0 | 7.0 | 0.00 | 0.03 | 0.03 | 62 | 1010.9 |
| 20260509203743 | 88 | 28 | 3.0 | 7.0 | 0.00 | 0.03 | 0.03 | 62 | 1010.9 |
| 20260509203236 | 88 | 132 | 3.0 | 7.0 | 0.00 | 0.03 | 0.03 | 62 | 1011.1 |
| 20260509202738 | 88 | 76 | 2.0 | 7.0 | 0.00 | 0.03 | 0.03 | 63 | 1011.2 |
| 20260509202237 | 87 | 72 | 3.0 | 7.0 | 0.00 | 0.03 | 0.03 | 63 | 1011.3 |
| 20260509201738 | 88 | 120 | 4.0 | 8.0 | 0.00 | 0.03 | 0.03 | 62 | 1011.4 |
| 20260509201235 | 87 | 102 | 3.0 | 8.0 | 0.00 | 0.03 | 0.03 | 64 | 1011.4 |
| 20260509200736 | 87 | 38 | 2.0 | 7.0 | 0.00 | 0.03 | 0.03 | 64 | 1011.6 |
| 20260509200500 | 87 | 59 | 3.0 | 7.0 | 0.00 | 0.03 | 0.03 | 62 | 1011.5 |
| 20260509200229 | 86 | 34 | 3.0 | 7.0 | 0.00 | 0.03 | 0.03 | 65 | 1011.5 |
| 20260509195235 | 86 | 17 | 2.0 | 6.0 | 0.00 | 0.03 | 0.03 | 66 | 1011.5 |
| 20260509194956 | 86 | 37 | 2.0 | 5.0 | 0.00 | 0.03 | 0.03 | 66 | 1011.5 |
| 20260509194236 | 85 | 351 | 2.0 | 4.0 | 0.00 | 0.03 | 0.03 | 67 | 1011.6 |
| 20260509193735 | 85 | 39 | 2.0 | 4.0 | 0.00 | 0.03 | 0.03 | 68 | 1011.6 |
| 20260509193236 | 84 | 13 | 2.0 | 7.0 | 0.00 | 0.03 | 0.03 | 68 | 1011.7 |
| 20260509192733 | 84 | 20 | 2.0 | 7.0 | 0.00 | 0.03 | 0.03 | 70 | 1011.7 |
| 20260509192232 | 83 | 36 | 2.0 | 6.0 | 0.00 | 0.03 | 0.03 | 77 | 1011.8 |
| 20260509191732 | 83 | 76 | 2.0 | 6.0 | 0.00 | 0.03 | 0.03 | 76 | 1011.9 |
| 20260509191232 | 82 | 28 | 3.0 | 7.0 | 0.00 | 0.03 | 0.03 | 80 | 1011.9 |
| 20260509190731 | 82 | 36 | 3.0 | 7.0 | 0.01 | 0.03 | 0.03 | 79 | 1012.1 |
| 20260509190231 | 81 | 63 | 3.0 | 7.0 | 0.01 | 0.03 | 0.03 | 83 | 1012.3 |
| 20260509185731 | 81 | 46 | 3.0 | 7.0 | 0.02 | 0.03 | 0.03 | 84 | 1012.3 |
| 20260509185712 | 80 | 13 | 3.0 | 7.0 | 0.03 | 0.03 | 0.03 | 85 | 1012.3 |
| 20260509184731 | 79 | 116 | 3.0 | 7.0 | 0.03 | 0.03 | 0.03 | 84 | 1012.4 |
| 20260509184454 | 78 | 11 | 2.0 | 7.0 | 0.03 | 0.03 | 0.03 | 90 | 1012.4 |
| 20260509183731 | 77 | 94 | 1.0 | 4.0 | 0.03 | 0.03 | 0.03 | 92 | 1012.3 |
| 20260509183453 | 77 | 25 | 1.0 | 4.0 | 0.03 | 0.03 | 0.03 | 90 | 1012.4 |
| 20260509183004 | 76 | 25 | 2.0 | 4.0 | 0.03 | 0.03 | 0.03 | 90 | 1012.6 |
| 20260509182232 | 76 | 0 | 2.0 | 4.0 | 0.03 | 0.03 | 0.03 | 91 | 1012.7 |
| 20260509181732 | 77 | 15 | 2.0 | 6.0 | 0.03 | 0.03 | 0.03 | 91 | 1012.9 |
| 20260509181229 | 77 | 17 | 2.0 | 6.0 | 0.03 | 0.03 | 0.03 | 92 | 1012.9 |
| 20260509180728 | 77 | 76 | 2.0 | 6.0 | 0.02 | 0.02 | 0.02 | 91 | 1012.8 |
| 20260509180228 | 78 | 59 | 2.0 | 6.0 | 0.02 | 0.02 | 0.02 | 89 | 1012.8 |
| 20260509175728 | 79 | 71 | 2.0 | 9.0 | 0.01 | 0.01 | 0.01 | 87 | 1013.0 |
| 20260509175228 | 80 | 26 | 2.0 | 9.0 | 0.00 | 0.00 | 0.00 | 85 | 1013.0 |
| 20260509174727 | 80 | 250 | 2.0 | 9.0 | 0.00 | 0.00 | 0.00 | 83 | 1013.0 |
| 20260509174228 | 81 | 238 | 3.0 | 9.0 | 0.00 | 0.00 | 0.00 | 80 | 1012.5 |
| 20260509173728 | 81 | 221 | 2.0 | 6.0 | 0.00 | 0.00 | 0.00 | 78 | 1013.0 |
| 20260509173228 | 82 | 165 | 3.0 | 8.0 | 0.00 | 0.00 | 0.00 | 77 | 1013.4 |
| 20260509172728 | 82 | 166 | 5.0 | 9.0 | 0.00 | 0.00 | 0.00 | 78 | 1013.2 |
| 20260509172228 | 82 | 150 | 5.0 | 10.0 | 0.00 | 0.00 | 0.00 | 79 | 1013.2 |
| 20260509171728 | 82 | 155 | 5.0 | 10.0 | 0.00 | 0.00 | 0.00 | 78 | 1013.4 |
| 20260509171228 | 82 | 128 | 5.0 | 11.0 | 0.00 | 0.00 | 0.00 | 80 | 1013.6 |
| 20260509170728 | 81 | 124 | 6.0 | 11.0 | 0.00 | 0.00 | 0.00 | 81 | 1013.4 |
| 20260509170228 | 81 | 163 | 5.0 | 10.0 | 0.00 | 0.00 | 0.00 | 80 | 1013.5 |
| 20260509165946 | 81 | 113 | 4.0 | 10.0 | 0.00 | 0.00 | 0.00 | 79 | 1013.4 |
| 20260509165224 | 82 | 217 | 4.0 | 10.0 | 0.00 | 0.00 | 0.00 | 80 | 1013.3 |
| 20260509164720 | 82 | 190 | 5.0 | 10.0 | 0.00 | 0.00 | 0.00 | 81 | 1013.3 |
| 20260509164220 | 82 | 211 | 5.0 | 12.0 | 0.00 | 0.00 | 0.00 | 79 | 1013.3 |
| 20260509163719 | 82 | 186 | 5.0 | 12.0 | 0.00 | 0.00 | 0.00 | 81 | 1013.4 |
| 20260509163219 | 82 | 188 | 6.0 | 11.0 | 0.00 | 0.00 | 0.00 | 80 | 1013.5 |
| 20260509162712 | 83 | 176 | 6.0 | 11.0 | 0.00 | 0.00 | 0.00 | 81 | 1013.5 |
| 20260509162209 | 82 | 141 | 6.0 | 12.0 | 0.00 | 0.00 | 0.00 | 81 | 1013.6 |
| 20260509161708 | 82 | 175 | 5.0 | 12.0 | 0.00 | 0.00 | 0.00 | 81 | 1013.5 |
| 20260509161432 | 83 | 198 | 4.0 | 12.0 | 0.00 | 0.00 | 0.00 | 82 | 1013.4 |
| 20260509160709 | 82 | 200 | 5.0 | 12.0 | 0.00 | 0.00 | 0.00 | 81 | 1013.4 |
| 20260509160208 | 83 | 188 | 5.0 | 11.0 | 0.00 | 0.00 | 0.00 | 77 | 1013.2 |
| 20260509155709 | 83 | 241 | 4.0 | 11.0 | 0.00 | 0.00 | 0.00 | 75 | 1013.0 |
| 20260509155209 | 83 | 227 | 4.0 | 13.0 | 0.00 | 0.00 | 0.00 | 76 | 1013.0 |
| 20260509154709 | 83 | 225 | 4.0 | 13.0 | 0.00 | 0.00 | 0.00 | 76 | 1012.9 |
| 20260509154208 | 83 | 235 | 4.0 | 10.0 | 0.00 | 0.00 | 0.00 | 78 | 1012.7 |
| 20260509153705 | 82 | 212 | 4.0 | 10.0 | 0.00 | 0.00 | 0.00 | 79 | 1012.6 |
| 20260509153204 | 82 | 218 | 4.0 | 10.0 | 0.00 | 0.00 | 0.00 | 79 | 1012.4 |
| 20260509152704 | 81 | 237 | 4.0 | 9.0 | 0.00 | 0.00 | 0.00 | 79 | 1012.4 |
| 20260509152204 | 81 | 210 | 4.0 | 8.0 | 0.00 | 0.00 | 0.00 | 82 | 1012.4 |
| 20260509151704 | 81 | 239 | 4.0 | 8.0 | 0.00 | 0.00 | 0.00 | 82 | 1012.6 |
| 20260509151430 | 80 | 258 | 4.0 | 8.0 | 0.00 | 0.00 | 0.00 | 83 | 1012.6 |
| 20260509150933 | 80 | 242 | 4.0 | 7.0 | 0.00 | 0.00 | 0.00 | 83 | 1012.7 |
| 20260509150204 | 80 | 223 | 4.0 | 9.0 | 0.00 | 0.00 | 0.00 | 84 | 1012.6 |
| 20260509145702 | 80 | 161 | 4.0 | 9.0 | 0.00 | 0.00 | 0.00 | 83 | 1012.6 |
| 20260509145202 | 80 | 219 | 4.0 | 8.0 | 0.00 | 0.00 | 0.00 | 85 | 1012.5 |
| 20260509144944 | 80 | 185 | 5.0 | 11.0 | 0.00 | 0.00 | 0.00 | 85 | 1012.5 |
| 20260509144203 | 79 | 205 | 5.0 | 11.0 | 0.00 | 0.00 | 0.00 | 86 | 1012.5 |
| 20260509143703 | 79 | 180 | 6.0 | 10.0 | 0.00 | 0.00 | 0.00 | 86 | 1012.4 |
| 20260509143204 | 78 | 205 | 5.0 | 10.0 | 0.00 | 0.00 | 0.00 | 86 | 1012.4 |
| 20260509142702 | 78 | 160 | 4.0 | 8.0 | 0.00 | 0.00 | 0.00 | 87 | 1012.4 |
| 20260509142203 | 78 | 165 | 4.0 | 8.0 | 0.00 | 0.00 | 0.00 | 88 | 1012.4 |
| 20260509141703 | 77 | 161 | 4.0 | 8.0 | 0.00 | 0.00 | 0.00 | 88 | 1012.4 |
| 20260509141203 | 77 | 194 | 4.0 | 7.0 | 0.00 | 0.00 | 0.00 | 88 | 1012.3 |
| 20260509140703 | 77 | 180 | 4.0 | 9.0 | 0.00 | 0.00 | 0.00 | 89 | 1012.1 |
| 20260509140204 | 76 | 194 | 4.0 | 9.0 | 0.00 | 0.00 | 0.00 | 90 | 1012.1 |
| 20260509135703 | 76 | 200 | 4.0 | 8.0 | 0.00 | 0.00 | 0.00 | 90 | 1012.0 |
| 20260509135204 | 76 | 161 | 4.0 | 9.0 | 0.00 | 0.00 | 0.00 | 93 | 1012.0 |
| 20260509134703 | 75 | 186 | 4.0 | 14.0 | 0.00 | 0.00 | 0.00 | 94 | 1012.1 |
| 20260509134432 | 74 | 202 | 6.0 | 14.0 | 0.00 | 0.00 | 0.00 | 95 | 1011.9 |
| 20260509133704 | 74 | 165 | 6.0 | 14.0 | 0.00 | 0.00 | 0.00 | 96 | 1011.7 |
| 20260509133204 | 73 | 176 | 5.0 | 14.0 | 0.00 | 0.00 | 0.00 | 97 | 1011.6 |
| 20260509132703 | 73 | 177 | 4.0 | 11.0 | 0.00 | 0.00 | 0.00 | 97 | 1011.6 |
| 20260509132432 | 72 | 168 | 4.0 | 11.0 | 0.00 | 0.00 | 0.00 | 97 | 1011.1 |
| 20260509131704 | 72 | 182 | 3.0 | 9.0 | 0.00 | 0.00 | 0.00 | 98 | 1011.2 |
| 20260509131203 | 72 | 196 | 3.0 | 9.0 | 0.00 | 0.00 | 0.00 | 98 | 1011.7 |
| 20260509130714 | 72 | 165 | 3.0 | 9.0 | 0.00 | 0.00 | 0.00 | 98 | 1011.7 |
| 20260509130211 | 71 | 163 | 3.0 | 10.0 | 0.00 | 0.00 | 0.00 | 98 | 1011.7 |
| 20260509125709 | 71 | 179 | 5.0 | 10.0 | 0.00 | 0.00 | 0.00 | 98 | 1011.8 |
| 20260509125207 | 71 | 194 | 5.0 | 10.0 | 0.00 | 0.00 | 0.00 | 98 | 1011.6 |
| 20260509124709 | 71 | 187 | 5.0 | 10.0 | 0.00 | 0.00 | 0.00 | 98 | 1011.5 |
| 20260509124205 | 71 | 193 | 4.0 | 8.0 | 0.00 | 0.00 | 0.00 | 98 | 1011.5 |
| 20260509123721 | 70 | 158 | 3.0 | 8.0 | 0.00 | 0.00 | 0.00 | 98 | 1012.0 |
| 20260509123203 | 70 | 173 | 3.0 | 6.0 | 0.00 | 0.00 | 0.00 | 98 | 1012.3 |
| 20260509122703 | 70 | 157 | 3.0 | 6.0 | 0.00 | 0.00 | 0.00 | 98 | 1012.2 |
| 20260509122203 | 70 | 193 | 2.0 | 5.0 | 0.00 | 0.00 | 0.00 | 98 | 1012.4 |
| 20260509121718 | 70 | 236 | 1.0 | 3.0 | 0.00 | 0.00 | 0.00 | 98 | 1012.5 |
| 20260509121714 | 70 | 229 | 1.0 | 3.0 | 0.00 | 0.00 | 0.00 | 98 | 1012.6 |
| 20260509120656 | 70 | 338 | 1.0 | 3.0 | 0.00 | 0.00 | 0.00 | 98 | 1012.5 |
| 20260509120156 | 70 | 340 | 0.0 | 3.0 | 0.00 | 0.00 | 0.00 | 98 | 1012.6 |
| 20260509115917 | 71 | 340 | 1.0 | 5.0 | 0.00 | 0.00 | 0.00 | 98 | 1012.5 |
| 20260509115151 | 71 | 339 | 2.0 | 5.0 | 0.00 | 0.00 | 0.00 | 98 | 1012.7 |
| 20260509114651 | 71 | 331 | 2.0 | 5.0 | 0.00 | 0.00 | 0.00 | 98 | 1012.9 |
| 20260509114151 | 71 | 327 | 0.0 | 5.0 | 0.00 | 0.00 | 0.00 | 98 | 1012.9 |
| 20260509113650 | 71 | 335 | 0.0 | 0.0 | 0.00 | 0.00 | 0.00 | 98 | 1013.0 |
| 20260509113149 | 71 | 336 | 0.0 | 0.0 | 0.00 | 0.00 | 0.00 | 98 | 1013.2 |
| 20260509112646 | 71 | 336 | 0.0 | 0.0 | 0.00 | 0.00 | 0.00 | 98 | 1013.2 |
| 20260509112147 | 71 | 336 | 0.0 | 0.0 | 0.00 | 0.00 | 0.00 | 98 | 1013.3 |
| 20260509111645 | 71 | 336 | 0.0 | 0.0 | 0.00 | 0.00 | 0.00 | 98 | 1013.3 |
| 20260509111142 | 71 | 336 | 0.0 | 0.0 | 0.00 | 0.00 | 0.00 | 98 | 1013.3 |
| 20260509110643 | 71 | 336 | 0.0 | 0.0 | 0.00 | 0.00 | 0.00 | 98 | 1013.5 |
| 20260509110142 | 71 | 336 | 0.0 | 0.0 | 0.00 | 0.00 | 0.00 | 98 | 1013.5 |
| 20260509105642 | 71 | 336 | 0.0 | 0.0 | 0.00 | 0.00 | 0.00 | 98 | 1013.5 |
| 20260509105141 | 71 | 336 | 0.0 | 2.0 | 0.00 | 0.00 | 0.00 | 98 | 1013.7 |
| 20260509104641 | 71 | 336 | 0.0 | 2.0 | 0.00 | 0.00 | 0.00 | 98 | 1013.7 |
| 20260509104141 | 71 | 335 | 1.0 | 5.0 | 0.00 | 0.00 | 0.00 | 98 | 1014.0 |
| 20260509103637 | 71 | 336 | 1.0 | 5.0 | 0.00 | 0.00 | 0.00 | 98 | 1013.8 |
| 20260509103401 | 71 | 318 | 1.0 | 4.0 | 0.00 | 0.00 | 0.00 | 98 | 1013.9 |
| 20260509102635 | 71 | 338 | 0.0 | 2.0 | 0.00 | 0.00 | 0.00 | 98 | 1013.8 |
| 20260509102135 | 71 | 340 | 0.0 | 2.0 | 0.00 | 0.00 | 0.00 | 98 | 1013.8 |
| 20260509101634 | 71 | 340 | 0.0 | 3.0 | 0.00 | 0.00 | 0.00 | 98 | 1013.7 |
| 20260509101134 | 71 | 340 | 0.0 | 3.0 | 0.00 | 0.00 | 0.00 | 98 | 1013.7 |
| 20260509100635 | 71 | 340 | 1.0 | 4.0 | 0.00 | 0.00 | 0.00 | 98 | 1013.5 |
| 20260509100131 | 71 | 340 | 1.0 | 4.0 | 0.00 | 0.00 | 0.00 | 98 | 1013.5 |
| 20260509095632 | 71 | 340 | 1.0 | 4.0 | 0.00 | 0.00 | 0.00 | 98 | 1013.4 |
| 20260509095130 | 71 | 339 | 1.0 | 4.0 | 0.00 | 0.00 | 0.00 | 98 | 1013.2 |
| 20260509094630 | 71 | 351 | 2.0 | 4.0 | 0.00 | 0.00 | 0.00 | 98 | 1012.8 |
| 20260509094131 | 71 | 355 | 2.0 | 4.0 | 0.00 | 0.00 | 0.00 | 97 | 1012.8 |
| 20260509093630 | 71 | 335 | 1.0 | 3.0 | 0.00 | 0.00 | 0.00 | 97 | 1012.8 |
| 20260509093130 | 71 | 304 | 0.0 | 3.0 | 0.00 | 0.00 | 0.00 | 97 | 1012.7 |
| 20260509092630 | 71 | 266 | 0.0 | 0.0 | 0.00 | 0.00 | 0.00 | 97 | 1012.4 |
| 20260509092130 | 71 | 265 | 0.0 | 0.0 | 0.00 | 0.00 | 0.00 | 97 | 1012.0 |
| 20260509091630 | 71 | 265 | 0.0 | 0.0 | 0.00 | 0.00 | 0.00 | 97 | 1011.9 |
| 20260509091352 | 71 | 265 | 0.0 | 0.0 | 0.00 | 0.00 | 0.00 | 97 | 1011.9 |
| 20260509090630 | 71 | 265 | 0.0 | 0.0 | 0.00 | 0.00 | 0.00 | 97 | 1012.0 |
| 20260509090130 | 71 | 265 | 0.0 | 0.0 | 0.00 | 0.00 | 0.00 | 97 | 1012.1 |
| 20260509085630 | 71 | 265 | 0.0 | 0.0 | 0.00 | 0.00 | 0.00 | 97 | 1012.0 |
| 20260509085130 | 71 | 265 | 0.0 | 0.0 | 0.00 | 0.00 | 0.00 | 97 | 1012.0 |
| 20260509084631 | 72 | 265 | 0.0 | 0.0 | 0.00 | 0.00 | 0.00 | 97 | 1012.1 |
| 20260509084356 | 72 | 265 | 0.0 | 0.0 | 0.00 | 0.00 | 0.00 | 97 | 1012.2 |
| 20260509083629 | 72 | 269 | 0.0 | 0.0 | 0.00 | 0.00 | 0.00 | 97 | 1012.4 |
| 20260509083134 | 72 | 269 | 0.0 | 0.0 | 0.00 | 0.00 | 0.00 | 97 | 1012.4 |
| 20260509083128 | 72 | 325 | 0.0 | 0.0 | 0.00 | 0.00 | 0.00 | 97 | 1012.5 |
| 20260509082130 | 72 | 327 | 0.0 | 0.0 | 0.00 | 0.00 | 0.00 | 97 | 1012.6 |
| 20260509081627 | 72 | 327 | 0.0 | 0.0 | 0.00 | 0.00 | 0.00 | 97 | 1012.5 |
| 20260509081342 | 71 | 327 | 0.0 | 0.0 | 0.00 | 0.00 | 0.00 | 97 | 1012.4 |
| 20260509080616 | 71 | 329 | 0.0 | 0.0 | 0.00 | 0.00 | 0.00 | 97 | 1012.6 |
| 20260509080110 | 71 | 333 | 0.0 | 0.0 | 0.00 | 0.00 | 0.00 | 96 | 1012.6 |
| 20260509075610 | 71 | 333 | 0.0 | 0.0 | 0.00 | 0.00 | 0.00 | 96 | 1012.5 |
| 20260509075109 | 71 | 333 | 0.0 | 0.0 | 0.00 | 0.00 | 0.00 | 96 | 1012.5 |
| 20260509074605 | 71 | 333 | 0.0 | 0.0 | 0.00 | 0.00 | 0.00 | 96 | 1012.7 |
| 20260509074105 | 71 | 332 | 0.0 | 0.0 | 0.00 | 0.00 | 0.00 | 97 | 1012.9 |
| 20260509073604 | 71 | 332 | 0.0 | 0.0 | 0.00 | 0.00 | 0.00 | 97 | 1013.0 |
| 20260509073104 | 71 | 332 | 0.0 | 0.0 | 0.00 | 0.00 | 0.00 | 97 | 1012.8 |
| 20260509072604 | 71 | 332 | 0.0 | 0.0 | 0.00 | 0.00 | 0.00 | 97 | 1012.6 |
| 20260509072322 | 71 | 331 | 0.0 | 0.0 | 0.00 | 0.00 | 0.00 | 97 | 1012.8 |
| 20260509071603 | 71 | 332 | 0.0 | 0.0 | 0.00 | 0.00 | 0.00 | 96 | 1012.9 |
| 20260509071104 | 71 | 332 | 0.0 | 0.0 | 0.00 | 0.00 | 0.00 | 96 | 1013.2 |
| 20260509070821 | 71 | 332 | 0.0 | 0.0 | 0.00 | 0.00 | 0.00 | 96 | 1012.9 |
| 20260509070324 | 71 | 332 | 0.0 | 0.0 | 0.00 | 0.00 | 0.00 | 96 | 1013.0 |
| 20260509065602 | 71 | 332 | 0.0 | 0.0 | 0.00 | 0.00 | 0.00 | 96 | 1012.7 |
| 20260509065104 | 71 | 332 | 0.0 | 0.0 | 0.00 | 0.00 | 0.00 | 96 | 1012.7 |
| 20260509064603 | 71 | 332 | 0.0 | 0.0 | 0.00 | 0.00 | 0.00 | 96 | 1012.7 |
| 20260509064104 | 71 | 332 | 0.0 | 0.0 | 0.00 | 0.00 | 0.00 | 96 | 1012.9 |
| 20260509063604 | 71 | 332 | 0.0 | 0.0 | 0.00 | 0.00 | 0.00 | 96 | 1012.9 |
| 20260509063105 | 71 | 332 | 0.0 | 1.0 | 0.00 | 0.00 | 0.00 | 96 | 1012.9 |
| 20260509062558 | 71 | 332 | 0.0 | 4.0 | 0.00 | 0.00 | 0.00 | 97 | 1013.0 |
| 20260509062100 | 71 | 331 | 1.0 | 4.0 | 0.00 | 0.00 | 0.00 | 97 | 1012.9 |
| 20260509061556 | 71 | 332 | 1.0 | 4.0 | 0.00 | 0.00 | 0.00 | 97 | 1013.3 |
| 20260509061055 | 70 | 333 | 2.0 | 4.0 | 0.00 | 0.00 | 0.00 | 97 | 1013.0 |
| 20260509060812 | 70 | 342 | 2.0 | 4.0 | 0.00 | 0.00 | 0.00 | 97 | 1012.7 |
| 20260509060050 | 70 | 321 | 2.0 | 4.0 | 0.00 | 0.00 | 0.00 | 96 | 1012.7 |
| 20260509055549 | 70 | 248 | 2.0 | 4.0 | 0.00 | 0.00 | 0.00 | 96 | 1012.8 |
| 20260509055323 | 70 | 244 | 2.0 | 4.0 | 0.00 | 0.00 | 0.00 | 96 | 1012.8 |
| 20260509054545 | 70 | 243 | 2.0 | 4.0 | 0.00 | 0.00 | 0.00 | 96 | 1012.7 |
| 20260509054532 | 70 | 225 | 1.0 | 4.0 | 0.00 | 0.00 | 0.00 | 96 | 1012.5 |
| 20260509053543 | 70 | 146 | 0.0 | 2.0 | 0.00 | 0.00 | 0.00 | 96 | 1012.1 |
| 20260509053300 | 70 | 146 | 0.0 | 1.0 | 0.00 | 0.00 | 0.00 | 95 | 1011.9 |
| 20260509052542 | 70 | 146 | 0.0 | 1.0 | 0.00 | 0.00 | 0.00 | 95 | 1011.6 |
| 20260509052038 | 70 | 146 | 0.0 | 1.0 | 0.00 | 0.00 | 0.00 | 94 | 1011.4 |
| 20260509051538 | 70 | 146 | 0.0 | 2.0 | 0.00 | 0.00 | 0.00 | 94 | 1011.3 |
| 20260509051038 | 71 | 146 | 1.0 | 2.0 | 0.00 | 0.00 | 0.00 | 94 | 1011.2 |
| 20260509050538 | 71 | 146 | 1.0 | 3.0 | 0.00 | 0.00 | 0.00 | 94 | 1011.2 |
| 20260509050036 | 71 | 146 | 1.0 | 3.0 | 0.00 | 0.00 | 0.00 | 94 | 1011.2 |
| 20260509045534 | 71 | 142 | 2.0 | 4.0 | 0.00 | 0.00 | 0.00 | 94 | 1011.2 |
| 20260509045033 | 71 | 142 | 2.0 | 4.0 | 0.00 | 0.00 | 0.00 | 94 | 1011.1 |
| 20260509044531 | 72 | 133 | 1.0 | 3.0 | 0.00 | 0.00 | 0.00 | 94 | 1011.1 |
| 20260509044033 | 72 | 132 | 0.0 | 2.0 | 0.00 | 0.00 | 0.00 | 94 | 1011.2 |
| 20260509043527 | 72 | 132 | 0.0 | 1.0 | 0.00 | 0.00 | 0.00 | 94 | 1011.5 |
| 20260509043021 | 72 | 132 | 0.0 | 1.0 | 0.00 | 0.00 | 0.00 | 94 | 1011.7 |
| 20260509042516 | 72 | 132 | 0.0 | 1.0 | 0.00 | 0.00 | 0.00 | 94 | 1011.8 |
| 20260509042015 | 72 | 132 | 0.0 | 3.0 | 0.00 | 0.00 | 0.00 | 94 | 1011.8 |
| 20260509041516 | 72 | 132 | 0.0 | 3.0 | 0.00 | 0.00 | 0.00 | 94 | 1011.8 |
| 20260509041015 | 72 | 132 | 1.0 | 3.0 | 0.00 | 0.00 | 0.00 | 94 | 1011.8 |
| 20260509040516 | 72 | 132 | 1.0 | 3.0 | 0.00 | 0.00 | 0.00 | 94 | 1011.9 |
| 20260509040016 | 72 | 132 | 0.0 | 2.0 | 0.00 | 0.00 | 0.00 | 94 | 1012.0 |
| 20260509035741 | 72 | 132 | 0.0 | 2.0 | 0.00 | 0.00 | 0.00 | 94 | 1012.0 |
| 20260509035014 | 72 | 132 | 0.0 | 2.0 | 0.00 | 0.00 | 0.00 | 93 | 1011.9 |
| 20260509034512 | 72 | 132 | 0.0 | 2.0 | 0.00 | 0.00 | 0.00 | 93 | 1011.9 |
| 20260509034012 | 72 | 132 | 0.0 | 5.0 | 0.00 | 0.00 | 0.00 | 93 | 1011.8 |
| 20260509033512 | 72 | 132 | 1.0 | 5.0 | 0.00 | 0.00 | 0.00 | 93 | 1011.9 |
| 20260509033012 | 72 | 132 | 2.0 | 5.0 | 0.00 | 0.00 | 0.00 | 93 | 1011.6 |
| 20260509032512 | 73 | 132 | 2.0 | 5.0 | 0.00 | 0.00 | 0.00 | 93 | 1011.6 |
| 20260509032008 | 73 | 130 | 2.0 | 5.0 | 0.00 | 0.00 | 0.00 | 93 | 1011.5 |
| 20260509031507 | 73 | 139 | 3.0 | 6.0 | 0.00 | 0.00 | 0.00 | 93 | 1011.5 |
| 20260509031008 | 72 | 147 | 3.0 | 6.0 | 0.00 | 0.00 | 0.00 | 93 | 1011.4 |
| 20260509030507 | 72 | 151 | 3.0 | 6.0 | 0.00 | 0.00 | 0.00 | 93 | 1011.4 |
| 20260509030008 | 72 | 146 | 2.0 | 5.0 | 0.00 | 0.00 | 0.00 | 92 | 1011.3 |
| 20260509025508 | 72 | 152 | 1.0 | 5.0 | 0.00 | 0.00 | 0.00 | 92 | 1011.3 |
| 20260509025005 | 73 | 115 | 1.0 | 3.0 | 0.00 | 0.00 | 0.00 | 91 | 1011.3 |
| 20260509024507 | 73 | 92 | 0.0 | 1.0 | 0.00 | 0.00 | 0.00 | 91 | 1011.3 |
| 20260509024241 | 73 | 91 | 0.0 | 0.0 | 0.00 | 0.00 | 0.00 | 90 | 1011.3 |
| 20260509023505 | 73 | 91 | 0.0 | 0.0 | 0.00 | 0.00 | 0.00 | 90 | 1011.2 |
| 20260509023006 | 74 | 91 | 0.0 | 2.0 | 0.00 | 0.00 | 0.00 | 90 | 1011.2 |
| 20260509022958 | 74 | 91 | 1.0 | 3.0 | 0.00 | 0.00 | 0.00 | 90 | 1011.2 |
| 20260509022005 | 74 | 91 | 1.0 | 3.0 | 0.00 | 0.00 | 0.00 | 90 | 1011.2 |
| 20260509021505 | 74 | 92 | 2.0 | 4.0 | 0.00 | 0.00 | 0.00 | 90 | 1011.1 |
| 20260509021005 | 74 | 91 | 1.0 | 4.0 | 0.00 | 0.00 | 0.00 | 90 | 1011.1 |
| 20260509020505 | 74 | 89 | 2.0 | 3.0 | 0.00 | 0.00 | 0.00 | 90 | 1011.0 |
| 20260509020005 | 74 | 88 | 2.0 | 4.0 | 0.00 | 0.00 | 0.00 | 90 | 1010.9 |
| 20260509015505 | 74 | 91 | 2.0 | 4.0 | 0.00 | 0.00 | 0.00 | 90 | 1010.8 |
| 20260509015005 | 74 | 102 | 2.0 | 4.0 | 0.00 | 0.00 | 0.00 | 90 | 1010.7 |
| 20260509014505 | 74 | 92 | 1.0 | 4.0 | 0.00 | 0.00 | 0.00 | 89 | 1010.8 |
| 20260509014004 | 74 | 84 | 1.0 | 3.0 | 0.00 | 0.00 | 0.00 | 89 | 1010.6 |
| 20260509013504 | 74 | 84 | 2.0 | 5.0 | 0.00 | 0.00 | 0.00 | 89 | 1010.6 |
| 20260509013236 | 74 | 97 | 2.0 | 5.0 | 0.00 | 0.00 | 0.00 | 89 | 1010.5 |
| 20260509012504 | 74 | 92 | 3.0 | 5.0 | 0.00 | 0.00 | 0.00 | 89 | 1010.3 |
| 20260509012005 | 74 | 74 | 3.0 | 8.0 | 0.00 | 0.00 | 0.00 | 88 | 1010.3 |
| 20260509011504 | 75 | 81 | 4.0 | 9.0 | 0.00 | 0.00 | 0.00 | 88 | 1010.3 |
| 20260509011005 | 75 | 71 | 4.0 | 9.0 | 0.00 | 0.00 | 0.00 | 88 | 1010.2 |
| 20260509010504 | 75 | 85 | 5.0 | 10.0 | 0.00 | 0.00 | 0.00 | 88 | 1010.2 |
| 20260509010228 | 75 | 116 | 5.0 | 10.0 | 0.00 | 0.00 | 0.00 | 87 | 1010.2 |
| 20260509005502 | 75 | 105 | 4.0 | 8.0 | 0.00 | 0.00 | 0.00 | 87 | 1010.3 |
| 20260509005230 | 76 | 88 | 4.0 | 7.0 | 0.00 | 0.00 | 0.00 | 87 | 1010.5 |
| 20260509004500 | 76 | 117 | 4.0 | 7.0 | 0.00 | 0.00 | 0.00 | 87 | 1010.5 |
| 20260509004000 | 76 | 117 | 4.0 | 7.0 | 0.00 | 0.00 | 0.00 | 87 | 1010.5 |
| 20260509003736 | 75 | 114 | 4.0 | 9.0 | 0.00 | 0.00 | 0.00 | 87 | 1010.5 |
| 20260509002953 | 75 | 122 | 4.0 | 9.0 | 0.00 | 0.00 | 0.00 | 87 | 1010.5 |
| 20260509002712 | 75 | 126 | 4.0 | 7.0 | 0.00 | 0.00 | 0.00 | 87 | 1010.4 |
| 20260509002213 | 75 | 127 | 3.0 | 10.0 | 0.00 | 0.00 | 0.00 | 87 | 1010.4 |
| 20260509001439 | 75 | 101 | 4.0 | 10.0 | 0.00 | 0.00 | 0.00 | 87 | 1010.5 |
| 20260509000937 | 75 | 96 | 5.0 | 10.0 | 0.00 | 0.00 | 0.00 | 87 | 1010.4 |
| 20260509000440 | 75 | 117 | 4.0 | 10.0 | 0.00 | 0.00 | 0.00 | 87 | 1010.4 |
| 20260509000220 | 75 | 115 | 4.0 | 8.0 | 0.00 | 0.00 | 0.00 | 87 | 1010.5 |
| 20260508235437 | 75 | 84 | 4.0 | 7.0 | 0.00 | 0.00 | 0.00 | 87 | 1010.5 |
| 20260508234938 | 75 | 117 | 4.0 | 7.0 | 0.00 | 0.00 | 0.00 | 87 | 1010.6 |
| 20260508234435 | 75 | 98 | 4.0 | 8.0 | 0.00 | 0.00 | 0.00 | 87 | 1010.7 |
| 20260508233936 | 75 | 112 | 3.0 | 8.0 | 0.00 | 0.00 | 0.00 | 87 | 1010.8 |
| 20260508233433 | 75 | 98 | 4.0 | 8.0 | 0.00 | 0.00 | 0.00 | 86 | 1010.7 |
| 20260508232938 | 76 | 94 | 4.0 | 10.0 | 0.00 | 0.00 | 0.00 | 86 | 1010.6 |
| 20260508232934 | 75 | 91 | 5.0 | 10.0 | 0.00 | 0.00 | 0.00 | 86 | 1010.6 |
| 20260508231932 | 76 | 103 | 4.0 | 10.0 | 0.00 | 0.00 | 0.00 | 85 | 1010.6 |
| 20260508231433 | 76 | 92 | 4.0 | 10.0 | 0.00 | 0.00 | 0.00 | 85 | 1010.6 |
| 20260508230932 | 76 | 105 | 4.0 | 8.0 | 0.00 | 0.00 | 0.00 | 85 | 1010.6 |
| 20260508230433 | 76 | 91 | 3.0 | 8.0 | 0.00 | 0.00 | 0.00 | 84 | 1010.6 |
| 20260508225932 | 76 | 96 | 3.0 | 7.0 | 0.00 | 0.00 | 0.00 | 84 | 1010.6 |
| 20260508225441 | 76 | 107 | 5.0 | 9.0 | 0.00 | 0.00 | 0.00 | 84 | 1010.6 |
| 20260508224938 | 76 | 119 | 6.0 | 11.0 | 0.00 | 0.00 | 0.00 | 83 | 1010.5 |
| 20260508224432 | 76 | 91 | 6.0 | 11.0 | 0.00 | 0.00 | 0.00 | 83 | 1010.5 |
| 20260508223930 | 76 | 96 | 7.0 | 11.0 | 0.00 | 0.00 | 0.00 | 83 | 1010.6 |
| 20260508223414 | 76 | 115 | 6.0 | 11.0 | 0.00 | 0.00 | 0.00 | 83 | 1010.6 |
| 20260508222919 | 77 | 98 | 5.0 | 10.0 | 0.00 | 0.00 | 0.00 | 82 | 1010.6 |
| 20260508222419 | 77 | 137 | 5.0 | 10.0 | 0.00 | 0.00 | 0.00 | 82 | 1010.5 |
| 20260508221926 | 77 | 34 | 5.0 | 10.0 | 0.00 | 0.00 | 0.00 | 82 | 1010.5 |
| 20260508221414 | 77 | 87 | 5.0 | 11.0 | 0.00 | 0.00 | 0.00 | 81 | 1010.6 |
| 20260508220912 | 77 | 115 | 5.0 | 11.0 | 0.00 | 0.00 | 0.00 | 81 | 1010.5 |
| 20260508220412 | 77 | 80 | 5.0 | 10.0 | 0.00 | 0.00 | 0.00 | 81 | 1010.6 |
| 20260508215914 | 77 | 97 | 6.0 | 11.0 | 0.00 | 0.00 | 0.00 | 81 | 1010.6 |
| 20260508215411 | 77 | 94 | 6.0 | 11.0 | 0.00 | 0.00 | 0.00 | 80 | 1010.7 |
| 20260508214909 | 78 | 107 | 5.0 | 11.0 | 0.00 | 0.00 | 0.00 | 79 | 1010.7 |
| 20260508214417 | 78 | 116 | 4.0 | 11.0 | 0.00 | 0.00 | 0.00 | 79 | 1010.6 |
| 20260508213911 | 78 | 111 | 5.0 | 9.0 | 0.00 | 0.00 | 0.00 | 78 | 1010.7 |
| 20260508213410 | 78 | 152 | 6.0 | 10.0 | 0.00 | 0.00 | 0.00 | 79 | 1010.7 |
| 20260508212909 | 78 | 93 | 5.0 | 10.0 | 0.00 | 0.00 | 0.00 | 78 | 1010.8 |